When you browse on this site, cookies collect data to enhance your experience and personalize the content and advertising you see.
Visit our Privacy Policy to learn more. By continuing to use the site, you agree to this use of cookies and data.
  • In United Kingdom
  • List of Countries
  • For 7 days
  • Water Temperature
  • Weather Map
  • Weather Widgets
  • user-avatar
    Login

    Hourly Weather Kabul

    Today, 20 September, Friday

    Time Temperature Precipitation Wind Pressure Humidity
    00:00 +18°C° 0 mm 1 mps 612 mmHg 23%
    01:00 +16°C° 0 mm 1 mps 612 mmHg 24%
    02:00 +16°C° 0 mm 1 mps 611 mmHg 25%
    03:00 +15°C° 0 mm 1 mps 611 mmHg 26%
    04:00 +15°C° 0 mm 1 mps 611 mmHg 27%
    05:00 +14°C° 0 mm 1 mps 611 mmHg 26%
    06:00 +16°C° 0 mm 1 mps 612 mmHg 24%
    07:00 +19°C° 0 mm 1 mps 612 mmHg 21%
    08:00 +21°C° 0 mm 1 mps 613 mmHg 18%
    09:00 +22°C° 0 mm 1 mps 614 mmHg 16%
    10:00 +24°C° 0 mm 1 mps 614 mmHg 14%
    11:00 +26°C° 0 mm 1 mps 614 mmHg 13%
    12:00 +27°C° 0 mm 1 mps 614 mmHg 11%
    13:00 +28°C° 0 mm 1 mps 614 mmHg 10%
    14:00 +29°C° 0 mm 2 mps 613 mmHg 9%
    15:00 +29°C° 0 mm 2 mps 613 mmHg 9%
    16:00 +29°C° 0 mm 2 mps 613 mmHg 8%
    17:00 +29°C° 0 mm 2 mps 613 mmHg 8%
    18:00 +27°C° 0 mm 2 mps 613 mmHg 11%
    19:00 +24°C° 0 mm 2 mps 612 mmHg 13%
    20:00 +21°C° 0 mm 2 mps 612 mmHg 16%
    21:00 +20°C° 0 mm 2 mps 612 mmHg 18%
    22:00 +19°C° 0 mm 2 mps 612 mmHg 20%
    23:00 +19°C° 0 mm 1 mps 611 mmHg 22%

    Tomorrow, 21 September, Saturday

    Time Temperature Precipitation Wind Pressure Humidity
    00:00 +18°C° 0 mm 1 mps 611 mmHg 23%
    01:00 +16°C° 0 mm 1 mps 610 mmHg 25%
    02:00 +15°C° 0 mm 1 mps 610 mmHg 27%
    03:00 +15°C° 0 mm 1 mps 610 mmHg 28%
    04:00 +14°C° 0 mm 1 mps 609 mmHg 29%
    05:00 +14°C° 0 mm 1 mps 609 mmHg 30%
    06:00 +16°C° 0 mm 1 mps 610 mmHg 27%
    07:00 +18°C° 0 mm 1 mps 611 mmHg 24%
    08:00 +18°C° 0 mm 0 mps 612 mmHg 20%
    09:00 +22°C° 0 mm 1 mps 613 mmHg 18%
    10:00 +24°C° 0 mm 1 mps 613 mmHg 16%
    11:00 +26°C° 0 mm 1 mps 613 mmHg 14%
    12:00 +27°C° 0 mm 1 mps 613 mmHg 12%
    13:00 +28°C° 0 mm 1 mps 613 mmHg 11%
    14:00 +29°C° 0 mm 2 mps 613 mmHg 9%
    15:00 +29°C° 0 mm 2 mps 612 mmHg 9%
    16:00 +30°C° 0 mm 2 mps 612 mmHg 9%
    17:00 +30°C° 0 mm 2 mps 612 mmHg 8%
    18:00 +27°C° 0 mm 2 mps 612 mmHg 12%
    19:00 +24°C° 0 mm 1 mps 611 mmHg 15%
    20:00 +21°C° 0 mm 1 mps 610 mmHg 18%
    21:00 +20°C° 0 mm 1 mps 610 mmHg 20%
    22:00 +19°C° 0 mm 1 mps 610 mmHg 23%
    23:00 +17°C° 0 mm 0 mps 609 mmHg 25%

    Day after tomorrow, 22 September, Sunday

    Time Temperature Precipitation Wind Pressure Humidity
    00:00 +16°C° 0 mm 0 mps 609 mmHg 26%
    01:00 +15°C° 0 mm 0 mps 609 mmHg 28%
    02:00 +15°C° 0 mm 0 mps 608 mmHg 30%
    03:00 +14°C° 0 mm 0 mps 608 mmHg 31%
    04:00 +14°C° 0 mm 0 mps 608 mmHg 33%
    05:00 +13°C° 0 mm 0 mps 608 mmHg 35%
    06:00 +16°C° 0 mm 0 mps 609 mmHg 31%
    07:00 +18°C° 0 mm 0 mps 611 mmHg 27%
    08:00 +20°C° 0 mm 0 mps 612 mmHg 22%
    09:00 +24°C° 0 mm 1 mps 613 mmHg 22%
    10:00 +25°C° 0 mm 1 mps 613 mmHg 21%
    11:00 +27°C° 0 mm 1 mps 613 mmHg 20%
    12:00 +28°C° 0 mm 2 mps 613 mmHg 18%
    13:00 +29°C° 0 mm 2 mps 613 mmHg 16%
    14:00 +30°C° 0 mm 2 mps 613 mmHg 14%
    15:00 +30°C° 0 mm 2 mps 613 mmHg 15%
    16:00 +30°C° 0 mm 2 mps 613 mmHg 15%
    17:00 +30°C° 0 mm 2 mps 613 mmHg 15%
    18:00 +28°C° 0 mm 2 mps 613 mmHg 22%
    19:00 +25°C° 0 mm 1 mps 612 mmHg 29%
    20:00 +22°C° 0 mm 1 mps 612 mmHg 36%
    21:00 +22°C° 0 mm 1 mps 612 mmHg 36%
    22:00 +21°C° 0 mm 1 mps 612 mmHg 37%
    23:00 +20°C° 0 mm 1 mps 612 mmHg 37%

    23 September, Monday

    Time Temperature Precipitation Wind Pressure Humidity
    00:00 +19°C° 0 mm 1 mps 612 mmHg 34%
    01:00 +18°C° 0 mm 1 mps 612 mmHg 31%
    02:00 +18°C° 0 mm 1 mps 611 mmHg 29%
    03:00 +16°C° 0 mm 1 mps 611 mmHg 26%
    04:00 +15°C° 0 mm 1 mps 611 mmHg 24%
    05:00 +15°C° 0 mm 1 mps 611 mmHg 22%
    06:00 +18°C° 0 mm 1 mps 612 mmHg 19%
    07:00 +20°C° 0 mm 1 mps 613 mmHg 16%
    08:00 +20°C° 0 mm 0 mps 614 mmHg 13%
    09:00 +24°C° 0 mm 1 mps 615 mmHg 11%
    10:00 +25°C° 0 mm 1 mps 615 mmHg 10%
    11:00 +27°C° 0 mm 1 mps 615 mmHg 8%
    12:00 +28°C° 0 mm 1 mps 615 mmHg 8%
    13:00 +30°C° 0 mm 1 mps 615 mmHg 7%
    14:00 +31°C° 0 mm 1 mps 615 mmHg 6%
    15:00 +31°C° 0 mm 1 mps 615 mmHg 6%
    16:00 +31°C° 0 mm 1 mps 615 mmHg 6%
    17:00 +31°C° 0 mm 1 mps 614 mmHg 6%
    18:00 +28°C° 0 mm 1 mps 614 mmHg 8%
    19:00 +25°C° 0 mm 1 mps 613 mmHg 11%
    20:00 +22°C° 0 mm 1 mps 612 mmHg 14%
    21:00 +21°C° 0 mm 1 mps 612 mmHg 16%
    22:00 +20°C° 0 mm 1 mps 612 mmHg 19%
    23:00 +17°C° 0 mm 0 mps 611 mmHg 21%

    24 September, Tuesday

    Time Temperature Precipitation Wind Pressure Humidity
    00:00 +16°C° 0 mm 0 mps 611 mmHg 22%
    01:00 +16°C° 0 mm 0 mps 611 mmHg 23%
    02:00 +15°C° 0 mm 0 mps 610 mmHg 24%
    03:00 +15°C° 0 mm 0 mps 610 mmHg 27%
    04:00 +14°C° 0 mm 0 mps 610 mmHg 29%
    05:00 +14°C° 0 mm 0 mps 610 mmHg 31%
    06:00 +16°C° 0 mm 0 mps 611 mmHg 27%
    07:00 +18°C° 0 mm 0 mps 613 mmHg 24%
    08:00 +21°C° 0 mm 0 mps 614 mmHg 20%
    09:00 +23°C° 0 mm 0 mps 614 mmHg 19%
    10:00 +26°C° 0 mm 1 mps 615 mmHg 18%
    11:00 +28°C° 0 mm 1 mps 615 mmHg 16%
    12:00 +29°C° 0 mm 1 mps 615 mmHg 14%
    13:00 +30°C° 0 mm 1 mps 615 mmHg 12%
    14:00 +31°C° 0 mm 1 mps 615 mmHg 10%
    15:00 +31°C° 0 mm 2 mps 615 mmHg 10%
    16:00 +31°C° 0 mm 2 mps 615 mmHg 9%
    17:00 +31°C° 0 mm 2 mps 614 mmHg 9%
    18:00 +29°C° 0 mm 2 mps 614 mmHg 15%
    19:00 +26°C° 0 mm 2 mps 613 mmHg 21%
    20:00 +23°C° 0 mm 2 mps 613 mmHg 27%
    21:00 +22°C° 0 mm 1 mps 613 mmHg 29%
    22:00 +21°C° 0 mm 1 mps 612 mmHg 31%
    23:00 +20°C° 0 mm 1 mps 612 mmHg 33%

    25 September, Wednesday

    Time Temperature Precipitation Wind Pressure Humidity
    00:00 +17°C° 0 mm 0 mps 612 mmHg 33%
    01:00 +16°C° 0 mm 0 mps 611 mmHg 33%
    02:00 +15°C° 0 mm 0 mps 611 mmHg 34%
    03:00 +15°C° 0 mm 0 mps 610 mmHg 35%
    04:00 +14°C° 0 mm 0 mps 610 mmHg 36%
    05:00 +14°C° 0 mm 0 mps 610 mmHg 38%
    06:00 +16°C° 0 mm 0 mps 611 mmHg 33%
    07:00 +18°C° 0 mm 0 mps 613 mmHg 29%
    08:00 +21°C° 0 mm 0 mps 614 mmHg 25%
    09:00 +24°C° 0 mm 1 mps 614 mmHg 24%
    10:00 +26°C° 0 mm 1 mps 615 mmHg 24%
    11:00 +27°C° 0 mm 2 mps 615 mmHg 24%
    12:00 +28°C° 0 mm 2 mps 615 mmHg 22%
    13:00 +29°C° 0 mm 2 mps 615 mmHg 21%
    14:00 +31°C° 0 mm 2 mps 615 mmHg 19%
    15:00 +30°C° 0 mm 3 mps 615 mmHg 21%
    16:00 +30°C° 0 mm 3 mps 615 mmHg 23%
    17:00 +30°C° 0 mm 4 mps 615 mmHg 24%
    18:00 +28°C° 0 mm 3 mps 614 mmHg 34%
    19:00 +25°C° 0 mm 2 mps 614 mmHg 43%
    20:00 +23°C° 0 mm 2 mps 614 mmHg 52%
    21:00 +22°C° 0 mm 1 mps 614 mmHg 55%
    22:00 +22°C° 0 mm 1 mps 614 mmHg 57%
    23:00 +21°C° 0 mm 1 mps 614 mmHg 59%
    Show more